Wind_Speed
5 5 5 5 5 6 6 5 5 5 6 6 6 6 6 5 5 5 4 4 5 5 5 5 6 6 5 4 4 4 4 5 4 4 4 5 5 5 5 6 6 6 7
4 4 5 6 6 6 6 6 6 5 6 6 7 7 7 6 6 6 6 5 6 6 6 7 7 7 6 6 5 6 5 6 5 5 5 6 6 6 6 7 7 7 8
2 3 3 5 5 5 6 6 6 6 6 7 7 7 7 7 7 7 7 7 7 7 7 8 8 8 7 7 7 7 7 7 7 7 7 7 7 7 8 8 8 8 9
2 1 2 3 4 4 5 6 6 6 6 7 7 7 8 8 8 8 7 7 7 8 8 8 8 8 8 8 9 9 9 8 8 8 8 8 8 9 9 9 9 9 9
2 1 2 2 3 3 4 5 6 7 7 7 7 7 8 8 8 8 8 7 8 9 9 9 9 8 8 9 9 9 9 9 9 10 9 10 10 10 9 9 10 10 10
1 1 1 1 2 3 4 4 5 6 7 8 8 8 8 8 9 8 8 8 9 9 10 9 9 9 9 9 10 10 10 11 11 11 11 11 11 10 9 9 9 10 10
2 1 1 1 2 2 3 3 4 6 7 7 8 8 8 9 9 9 8 9 9 9 10 10 10 10 11 10 10 11 11 11 11 12 12 11 10 10 10 10 11 11 11
3 3 2 1 2 2 3 4 4 5 6 7 7 8 8 9 9 9 9 9 9 10 11 11 12 12 13 13 13 13 12 12 12 12 11 11 11 11 12 12 13 13 13
3 3 3 2 2 3 4 5 5 6 6 7 7 8 8 9 9 9 10 10 10 10 11 11 12 13 13 13 13 13 13 12 13 13 13 13 13 13 13 14 14 15 15
4 3 3 3 4 4 5 5 6 6 6 7 7 8 8 8 8 8 9 10 10 10 11 11 11 13 13 13 13 12 12 13 13 13 14 14 15 15 15 15 15 15 16
5 5 5 5 5 5 5 5 6 6 7 6 7 8 8 8 8 8 9 9 9 10 11 11 12 12 12 12 12 13 13 14 14 14 14 14 15 16 16 16 16 16 16
6 6 5 6 6 6 6 6 6 7 7 7 7 7 8 8 9 10 10 11 11 11 11 11 12 12 12 13 13 13 14 14 14 15 15 15 15 16 16 16 16 16 16
6 6 7 7 7 8 8 7 7 7 7 7 7 8 9 9 10 11 11 12 12 12 12 12 13 13 14 14 14 14 14 14 15 16 16 16 16 16 17 17 17 18 18
7 7 7 8 8 9 9 8 7 8 8 8 9 9 10 10 11 11 11 12 12 13 13 14 14 14 15 15 15 15 15 15 15 16 16 17 17 17 18 18 18 19 19
8 8 8 9 9 10 10 10 10 10 11 10 10 10 11 11 12 13 13 13 13 14 14 15 15 15 16 16 16 16 16 17 16 17 17 18 18 18 18 19 20 20 21
9 10 10 10 11 11 12 12 12 12 12 12 11 12 12 13 13 13 14 15 15 15 15 16 16 17 17 17 17 18 19 18 19 18 18 18 19 19 20 20 21 22 22
12 12 13 13 13 13 13 13 13 13 13 13 13 13 13 14 14 14 15 16 16 16 16 17 17 18 19 19 18 19 20 21 21 20 20 21 21 21 21 21 21 22 23
14 15 15 15 15 15 15 15 15 15 15 15 15 15 15 16 16 16 16 16 17 18 18 19 19 19 20 20 20 21 21 21 22 23 23 23 23 23 23 23 23 23 23
17 17 17 17 17 18 18 17 17 17 17 17 17 17 18 18 18 18 18 18 19 19 20 20 20 21 22 21 21 21 22 22 23 23 24 25 25 26 26 26 25 25 25
19 19 20 20 20 20 20 20 20 19 19 19 19 20 20 20 20 20 20 20 20 20 21 21 22 23 24 24 24 24 24 25 25 25 25 26 27 27 27 26 27 27 27
22 22 22 22 22 22 22 22 23 22 22 22 21 22 22 22 22 22 22 22 22 22 22 22 23 23 24 25 26 26 27 27 27 28 28 28 29 29 29 28 28 28 28
23 23 23 23 24 24 24 24 24 24 24 23 23 23 23 23 24 24 24 24 24 24 24 25 25 25 26 26 27 27 28 28 29 29 29 30 30 30 30 30 30 29 29
25 24 24 25 25 25 26 25 25 26 25 25 25 25 25 25 25 25 26 26 26 26 26 27 27 27 28 29 29 30 30 30 30 30 30 30 30 30 30 31 31 31 30
27 27 26 26 27 27 27 27 28 27 27 27 27 27 27 26 26 26 26 27 28 29 29 29 29 29 30 30 31 31 31 32 32 32 32 31 31 31 31 31 31 31 31
30 29 28 28 28 29 29 29 30 29 29 28 28 28 28 28 28 28 29 29 30 30 31 31 31 32 32 32 32 32 33 33 33 32 33 33 32 32 32 32 32 32 32
30 30 31 30 30 30 31 30 31 30 30 30 29 30 31 30 30 30 31 31 31 32 32 33 33 34 33 33 33 33 34 34 34 34 33 34 34 34 34 33 34 33 32
Wind_Direction
152 163 176 180 182 189 190 193 197 200 202 204 206 211 213 213 213 215 221 227 230 231 231 234 233 231 229 232 236 236 241 250 258 271 274 276 275 275 276 283 283 283 283
141 164 180 193 200 205 209 209 213 210 215 220 225 229 224 227 227 228 232 236 239 237 241 244 243 242 238 237 240 245 252 256 261 269 277 282 280 279 279 279 280 281 282
135 150 172 192 204 213 222 217 209 213 223 229 229 227 227 234 239 241 241 242 246 244 245 247 246 244 244 243 245 250 257 258 262 267 273 278 282 281 280 278 279 280 285
126 159 197 199 201 206 215 217 219 226 227 231 231 227 231 239 240 239 241 248 249 249 248 249 250 248 249 250 252 255 258 260 263 268 273 275 277 279 280 277 278 283 287
117 137 187 194 190 206 215 219 224 234 233 234 235 234 237 241 239 238 242 246 249 250 249 252 249 251 254 253 253 257 259 262 267 269 271 274 275 278 278 275 277 281 284
90 136 175 194 198 219 224 225 228 235 239 240 239 241 238 239 241 241 245 246 247 249 252 256 255 254 254 255 256 258 261 264 266 271 274 274 274 277 277 277 280 283 285
44 18 269 248 252 250 243 243 247 245 250 249 246 245 243 243 245 245 243 245 247 250 253 253 255 256 255 257 258 261 264 265 266 269 270 271 271 275 277 276 279 282 284
24 16 1 320 295 286 268 253 257 262 261 253 250 248 248 250 248 243 242 248 251 254 255 256 255 256 258 261 263 263 262 261 263 265 267 269 270 272 275 276 278 280 282
14 11 2 330 306 293 281 268 269 269 266 263 261 255 251 248 248 247 248 253 256 260 261 261 257 256 258 262 262 264 263 263 262 262 263 267 271 274 275 276 278 279 281
0 349 343 333 318 299 284 279 281 277 277 277 271 264 255 248 248 253 256 257 258 259 262 265 261 258 261 264 264 266 265 266 265 264 264 267 271 273 275 277 277 280 280
356 341 324 316 310 302 292 290 290 293 289 284 276 266 260 254 251 254 257 259 259 260 263 264 262 262 263 266 264 265 265 265 264 264 266 268 270 272 274 276 277 278 280
343 339 329 325 319 313 307 302 300 301 293 285 279 274 267 261 259 261 263 263 263 265 265 265 263 263 264 265 265 265 265 265 266 267 268 269 271 273 275 276 277 278 280
326 323 321 320 319 312 306 302 301 297 291 285 278 275 272 268 266 267 268 267 265 267 266 267 265 262 263 266 267 267 268 269 270 268 269 271 273 274 274 276 278 278 279
319 316 312 311 312 312 308 300 296 297 296 290 280 277 276 274 271 269 270 270 269 268 265 265 266 265 262 265 268 270 270 272 272 271 272 274 275 275 274 277 279 278 279
307 309 307 308 309 309 308 303 299 296 295 289 281 278 276 275 274 271 271 273 274 271 267 264 265 267 268 267 268 269 271 271 271 271 274 274 275 274 275 277 279 279 279
294 298 299 301 303 303 303 299 296 295 293 286 281 279 277 276 277 276 276 276 276 274 270 268 267 266 269 272 273 272 270 269 270 271 272 274 275 275 277 277 277 278 279
291 293 295 296 297 298 297 296 293 291 289 285 281 278 275 275 277 280 279 278 277 275 273 270 270 269 271 272 274 275 272 269 270 272 274 275 277 279 279 279 278 277 279
290 289 290 292 292 294 294 292 287 284 284 283 280 278 276 275 277 280 281 280 278 278 275 271 270 271 273 275 276 276 272 272 272 273 274 276 278 279 280 279 279 280 280
288 287 286 288 289 289 289 287 284 283 281 279 278 278 278 278 277 278 281 281 280 280 278 276 272 271 273 275 276 278 277 274 275 276 276 276 277 279 280 281 281 281 281
287 285 285 285 285 286 285 284 281 281 280 278 277 277 277 276 276 276 278 280 279 278 277 277 276 273 272 273 274 275 277 277 277 278 277 277 278 279 281 282 280 281 280
284 283 282 284 283 284 284 284 282 282 280 278 277 275 275 274 274 275 275 276 276 278 277 277 277 276 274 274 273 273 275 278 279 278 277 277 278 279 280 281 281 282 281
283 282 281 283 284 284 284 284 283 283 279 278 277 276 275 275 275 274 274 274 274 276 276 276 277 277 276 274 273 273 274 275 276 278 278 277 277 278 279 279 280 281 282
281 282 281 281 282 282 283 284 284 284 281 278 277 276 275 275 275 275 274 275 276 277 277 277 277 278 278 277 275 273 274 275 277 278 279 279 278 279 279 278 278 279 279
278 279 282 280 279 279 280 282 282 281 280 278 277 276 276 274 275 276 277 278 278 278 278 278 277 277 276 276 276 275 275 276 277 277 279 279 277 278 279 278 278 278 279
278 277 278 278 278 278 278 280 281 281 279 277 277 277 277 275 275 276 277 279 279 280 278 278 277 278 278 276 275 275 276 276 275 276 277 279 279 279 279 279 279 279 278
279 278 276 276 276 276 277 279 281 280 280 278 276 276 277 277 276 277 278 279 279 280 280 278 279 279 279 278 276 276 276 275 275 276 277 279 279 279 279 279 278 277 278
Height
5886 5887 5888 5889 5889 5890 5891 5891 5892 5893 5894 5894 5895 5896 5896 5896 5896 5897 5897 5897 5897 5897 5897 5897 5897 5897 5897 5897 5897 5898 5897 5897 5897 5897 5897 5896 5896 5895 5895 5895 5894 5894 5894
5887 5887 5888 5888 5889 5890 5890 5891 5891 5892 5892 5893 5894 5895 5895 5895 5895 5895 5896 5896 5896 5896 5896 5896 5896 5896 5896 5896 5896 5896 5896 5896 5896 5896 5895 5895 5895 5894 5894 5893 5893 5893 5892
5887 5887 5888 5888 5889 5889 5890 5890 5890 5891 5891 5892 5892 5893 5893 5894 5894 5894 5894 5894 5894 5894 5894 5894 5894 5894 5895 5895 5895 5895 5895 5895 5895 5894 5894 5894 5893 5893 5892 5892 5891 5891 5890
5887 5888 5888 5888 5888 5889 5889 5889 5889 5890 5890 5890 5891 5891 5891 5892 5892 5892 5892 5892 5893 5893 5893 5893 5893 5893 5893 5893 5893 5893 5893 5893 5893 5892 5892 5892 5891 5891 5890 5890 5889 5889 5888
5887 5888 5887 5888 5888 5888 5888 5888 5889 5889 5889 5889 5889 5889 5890 5890 5890 5890 5891 5891 5891 5891 5891 5891 5891 5891 5891 5891 5891 5891 5891 5891 5891 5890 5890 5890 5889 5889 5888 5888 5887 5887 5886
5887 5887 5887 5887 5887 5887 5887 5887 5887 5887 5887 5887 5888 5888 5888 5888 5888 5888 5889 5889 5889 5889 5889 5889 5889 5889 5889 5889 5889 5889 5888 5888 5888 5888 5888 5887 5887 5886 5886 5886 5885 5885 5884
5887 5887 5887 5887 5887 5887 5886 5886 5886 5886 5886 5886 5886 5886 5886 5886 5886 5886 5886 5886 5886 5887 5887 5887 5886 5886 5886 5886 5886 5886 5886 5886 5886 5885 5885 5885 5884 5884 5884 5883 5883 5882 5881
5887 5886 5886 5886 5886 5886 5885 5885 5885 5884 5884 5884 5884 5884 5884 5885 5884 5885 5885 5884 5884 5884 5884 5884 5884 5884 5884 5883 5883 5883 5883 5883 5882 5882 5882 5882 5882 5881 5881 5881 5880 5879 5878
5886 5886 5885 5885 5885 5884 5884 5883 5883 5883 5883 5882 5882 5882 5882 5882 5882 5883 5883 5882 5882 5882 5882 5881 5881 5880 5880 5880 5880 5880 5879 5879 5879 5879 5879 5879 5879 5878 5878 5877 5877 5876 5875
5885 5885 5884 5884 5884 5883 5883 5882 5882 5881 5881 5880 5880 5880 5880 5880 5880 5880 5880 5880 5879 5879 5879 5878 5878 5877 5877 5877 5877 5877 5876 5876 5876 5876 5876 5876 5875 5875 5874 5873 5873 5872 5871
5885 5884 5883 5883 5882 5882 5881 5880 5880 5879 5879 5878 5878 5877 5877 5877 5878 5878 5878 5877 5877 5876 5876 5875 5875 5875 5874 5874 5874 5873 5873 5873 5873 5872 5872 5872 5871 5871 5870 5869 5868 5868 5867
5884 5883 5882 5881 5880 5880 5879 5879 5878 5877 5876 5876 5875 5875 5875 5875 5875 5875 5875 5874 5874 5873 5872 5872 5872 5872 5871 5870 5870 5870 5869 5869 5869 5869 5868 5868 5867 5866 5866 5865 5864 5863 5862
5882 5881 5881 5880 5879 5878 5877 5876 5875 5875 5874 5873 5873 5872 5872 5872 5871 5871 5871 5871 5870 5870 5869 5869 5868 5868 5867 5867 5867 5866 5866 5865 5865 5864 5864 5864 5863 5862 5862 5861 5860 5859 5858
5881 5880 5879 5878 5876 5875 5874 5873 5873 5872 5871 5870 5870 5869 5869 5868 5868 5867 5867 5867 5867 5866 5866 5865 5865 5864 5864 5863 5863 5863 5862 5862 5861 5860 5860 5859 5858 5857 5857 5856 5855 5855 5853
5878 5877 5876 5875 5874 5873 5871 5870 5870 5868 5868 5867 5866 5866 5865 5865 5864 5863 5863 5863 5863 5862 5862 5861 5861 5860 5860 5859 5859 5858 5858 5857 5856 5856 5855 5855 5854 5852 5851 5851 5850 5849 5848
5875 5874 5873 5872 5871 5869 5868 5867 5866 5865 5864 5863 5863 5862 5861 5861 5860 5859 5858 5858 5857 5857 5856 5856 5856 5856 5855 5855 5854 5853 5852 5852 5852 5851 5850 5850 5849 5848 5846 5845 5845 5844 5843
5871 5871 5869 5868 5867 5866 5865 5863 5862 5861 5860 5859 5858 5858 5857 5856 5855 5854 5854 5853 5852 5851 5851 5851 5851 5850 5850 5850 5849 5848 5847 5847 5846 5845 5845 5844 5843 5842 5841 5840 5838 5837 5836
5867 5866 5865 5864 5863 5862 5860 5859 5858 5856 5855 5854 5853 5853 5852 5851 5850 5849 5849 5848 5847 5846 5846 5846 5845 5845 5845 5844 5843 5842 5841 5840 5840 5840 5839 5838 5837 5836 5834 5833 5832 5831 5829
5863 5861 5860 5859 5858 5856 5855 5854 5852 5851 5850 5849 5848 5847 5846 5845 5845 5844 5843 5842 5841 5840 5840 5839 5839 5839 5838 5838 5837 5836 5835 5834 5833 5833 5832 5831 5830 5829 5828 5826 5825 5824 5823
5856 5855 5854 5853 5852 5850 5849 5848 5846 5845 5844 5843 5842 5841 5840 5839 5838 5837 5836 5836 5835 5834 5833 5833 5832 5832 5831 5830 5830 5829 5829 5827 5826 5826 5825 5824 5823 5822 5820 5819 5818 5817 5815
5850 5848 5847 5846 5845 5844 5842 5841 5840 5839 5837 5836 5835 5833 5833 5832 5831 5830 5829 5829 5828 5827 5826 5826 5825 5825 5824 5824 5823 5822 5821 5820 5819 5818 5817 5816 5815 5814 5813 5812 5810 5809 5807
5842 5841 5840 5839 5838 5837 5836 5834 5833 5832 5830 5829 5827 5826 5825 5824 5824 5823 5822 5821 5821 5820 5819 5818 5818 5817 5817 5816 5815 5814 5813 5812 5811 5811 5809 5808 5806 5805 5804 5803 5802 5800 5799
5835 5834 5833 5832 5830 5829 5828 5827 5825 5824 5822 5821 5820 5818 5817 5816 5815 5815 5814 5813 5813 5812 5811 5810 5810 5809 5808 5807 5806 5805 5804 5803 5802 5801 5800 5799 5797 5796 5795 5793 5793 5792 5790
5827 5826 5825 5823 5822 5821 5820 5819 5817 5815 5814 5813 5812 5810 5809 5808 5807 5806 5806 5805 5804 5803 5802 5801 5801 5800 5799 5798 5796 5796 5795 5794 5794 5792 5791 5790 5788 5787 5786 5784 5783 5782 5781
5818 5817 5816 5814 5813 5813 5811 5810 5808 5807 5805 5804 5803 5802 5800 5800 5799 5798 5797 5796 5795 5794 5792 5791 5791 5790 5788 5787 5786 5786 5785 5784 5784 5783 5782 5780 5779 5778 5777 5776 5774 5772 5771
5808 5807 5805 5804 5804 5803 5802 5800 5799 5797 5796 5795 5793 5793 5792 5791 5790 5788 5787 5786 5785 5784 5782 5781 5780 5779 5778 5777 5776 5775 5774 5773 5773 5773 5772 5770 5769 5768 5767 5766 5764 5763 5761